#timestamp,LO_Frequency,Hit,StdDev 
1615024815.5,286046998.4,N
1615024835.3,286046999.3,N
1615024855.2,286046999.1,N
1615024875.9,286047000.8,N
1615024895.7,286046996.5,N
1615024915.6,286046995.0,N
1615024935.4,286046999.2,N
1615024955.2,286047001.2,N
1615024975.1,286046998.8,N
1615024976.0,286046998.8,N
1615024995.8,286046996.8,N
1615025015.7,286046997.0,N
1615025035.5,286046996.8,N
1615025055.3,286046996.0,N
1615025075.2,286046994.2,N
1615025095.9,286046995.5,N
1615025115.7,286046994.2,N
1615025135.6,286046994.2,N
1615025155.4,286046991.8,Y
1615025175.3,286046995.5,P
1615025195.1,286046993.5,P
1615025196.0,286046993.5,P
1615025215.8,286046994.1,N
1615025235.7,286046997.9,N
1615025255.5,286046995.2,N
1615025275.3,286046997.4,N
1615025295.2,286046996.1,N
1615025315.0,286046994.9,N
1615025315.9,286046994.9,Y
1615025335.8,286047000.6,P
1615025355.6,286046998.4,N
1615025375.4,286047000.6,N
1615025395.3,286047000.5,N
1615025415.1,286046998.7,N
1615025435.8,286046999.6,N
1615025455.7,286046998.4,N
1615025475.5,286046997.8,N
1615025495.3,286046995.0,Y
1615025515.2,286046995.0,P
1615025535.0,286046995.4,N
1615025535.9,286046995.4,N
1615025555.8,286046995.6,N
1615025575.6,286046995.6,Y
1615025595.4,286046998.5,P
1615025615.3,286046998.4,N
1615025635.1,286046998.8,N
1615025655.9,286046998.3,N
1615025675.7,286046999.3,N
1615025695.5,286046999.6,N
1615025715.4,286046999.4,N
1615025735.2,286046997.2,N
1615025755.0,286046996.7,Y
1615025755.9,286046996.7,P
1615025775.8,286046999.3,N
1615025795.6,286046998.9,N
1615025815.5,286046999.1,N
1615025835.3,286046997.8,N
1615025855.1,286046998.0,N
1615025875.9,286046997.1,Y
1615025895.7,286046998.8,P
1615025915.5,286046998.6,P
1615025935.4,286047000.7,P
1615025955.2,286047002.3,N
1615025975.1,286047004.0,N
1615025976.0,286047004.0,N
1615025995.8,286047003.0,N
1615026015.6,286047005.9,N
1615026035.5,286047003.5,N
1615026055.3,286047005.6,N
1615026075.1,286047004.9,N
1615026095.9,286047002.9,N
1615026115.7,286047004.3,N
1615026135.5,286047001.0,N
1615026155.4,286046999.9,N
1615026175.2,286047000.0,N
1615026195.1,286047000.1,N
1615026196.0,286047000.1,N
1615026215.8,286047000.2,N
1615026235.6,286047000.6,N
1615026255.5,286047000.1,N
1615026275.3,286047000.7,N
1615026295.1,286046998.4,N
1615026315.9,286046997.0,N
1615026335.7,286046993.4,N
1615026355.6,286046993.4,N
1615026375.4,286046994.6,N
1615026395.2,286046999.5,N
1615026415.1,286046997.1,N
1615026416.0,286046997.1,N
1615026435.8,286046995.0,N
1615026455.6,286046995.9,N
1615026475.5,286046995.6,N
1615026495.3,286047000.9,N
1615026515.2,286047001.0,N
1615026535.9,286047000.8,N
1615026555.7,286046998.1,N
1615026575.6,286046999.8,N
1615026595.4,286046998.2,N
1615026615.2,286046999.4,N
1615026635.1,286046998.3,N
1615026636.0,286046998.3,N
1615026655.8,286046997.5,N
1615026675.7,286046995.2,N
1615026695.5,286046995.6,N
1615026715.3,286046995.9,N
1615026735.2,286046993.3,N
1615026755.9,286046995.0,N
1615026775.7,286046997.3,N
1615026795.6,286046999.1,N
1615026815.4,286046998.4,N
1615026835.3,286046998.9,N
1615026855.1,286047000.1,N
1615026856.0,286047000.1,N
1615026875.8,286047000.9,N
1615026895.7,286047000.8,N
1615026915.5,286047002.8,N
1615026935.3,286046998.1,N
1615026955.2,286046998.3,N
1615026975.0,286046999.4,N
1615026975.9,286046999.4,N
1615026995.8,286046996.7,N
1615027015.6,286046997.3,N
1615027035.4,286046997.5,N
1615027055.3,286046997.9,N
1615027075.1,286046997.2,N
1615027076.0,286046997.2,N
1615027095.8,286046997.3,N
1615027115.7,286046997.1,N
1615027135.5,286046997.8,N
1615027155.3,286046997.9,N
1615027175.2,286046996.5,N
1615027195.0,286046997.2,N
1615027195.9,286046997.2,N
1615027215.8,286046999.4,N
1615027235.6,286046999.5,N
1615027255.4,286046997.7,N
1615027275.3,286046995.7,N
1615027295.1,286046996.3,N
1615027315.9,286046993.3,Y
1615027335.7,286046995.0,P
1615027355.5,286046997.9,N
1615027375.4,286046998.0,N
1615027395.2,286046997.6,N
1615027415.0,286046997.1,N
1615027415.9,286046997.1,N
1615027435.8,286046994.9,Y
1615027455.6,286046998.3,P
1615027475.5,286046998.4,P
1615027495.3,286046998.1,P
1615027515.1,286046998.3,Y
1615027535.9,286047000.3,P
1615027555.7,286046999.9,N
1615027575.5,286047000.0,N
1615027595.4,286047000.9,N
1615027615.2,286046998.5,N
1615027635.1,286046998.3,N
1615027636.0,286046998.3,N
1615027655.8,286046998.9,N
1615027675.6,286046996.6,Y
1615027695.5,286047000.7,P
1615027715.3,286047011.9,P
1615027735.1,286046998.7,N
1615027755.9,286046998.4,N
1615027775.7,286046999.4,N
1615027795.5,286046997.0,N
1615027815.4,286046996.8,N
1615027835.2,286046997.6,N
1615027855.1,286046999.3,N
1615027856.0,286046999.3,N
1615027875.8,286046999.1,N
1615027895.6,286046998.4,N
1615027915.5,286046998.8,N
1615027935.3,286046998.3,N
1615027955.1,286047000.8,N
1615027975.9,286046999.3,N
1615027995.7,286047000.6,N
1615028015.6,286047000.5,N
1615028035.4,286046998.7,N
1615028055.2,286046998.6,N
1615028075.1,286046999.1,N
1615028076.0,286046999.1,N
1615028095.8,286047001.0,N
1615028115.6,286047000.8,N
1615028135.5,286047001.0,N
1615028155.3,286047001.2,N
1615028175.2,286046998.7,N
1615028195.9,286046998.4,N
1615028215.7,286047001.1,N
1615028235.6,286047000.1,N
1615028255.4,286046999.8,N
1615028275.2,286047000.4,N
1615028295.1,286047001.2,N
1615028296.0,286047001.2,N
1615028315.8,286047001.2,N
1615028335.7,286046998.4,N
1615028355.5,286046999.6,N
1615028375.3,286046997.7,N
1615028395.2,286046997.5,N
